WZZ6296 EPWA-LEBL

Flight info

Callsign WZZ6296
Flight time 2h 43m
Altitude 38000
Route EVINA N744 NAVUR DCT BAVOK DCT NAVTI DCT LIMRA DCT OBEDI DCT DETSA/N0449F390 DCT NESTI DCT VOG DCT GEKBA DCT VAMTU DCT KOLON DCT GANGU DCT PADKO DCT DIVKO DCT NILDU DCT BISBA
Aircraft A20N/M-SDE1E2E3FGIJ1J4RWXY/LB1

Departure

Time 2026-05-06 16:50
Airport Warsaw Chopin Airport (EPWA)

Arrival

Time 2026-05-06 19:34
Airport Josep Tarradellas Barcelona-El Prat Airport (LEBL)
Time Latitude Longitude Altitude Speed Heading
2026-05-06 16:30 52.17582 20.96349 336 ft 0 kts 246°
2026-05-06 16:44 52.17582 20.96348 336 ft 1 kts 246°
2026-05-06 16:45 52.17576 20.96326 334 ft 4 kts 246°
2026-05-06 16:45 52.17561 20.96280 333 ft 4 kts 231°
2026-05-06 16:45 52.17526 20.96277 333 ft 6 kts 154°
2026-05-06 16:45 52.17478 20.96321 335 ft 10 kts 150°
2026-05-06 16:46 52.17399 20.96392 335 ft 17 kts 152°
2026-05-06 16:46 52.17269 20.96504 333 ft 23 kts 152°
2026-05-06 16:46 52.17117 20.96638 333 ft 26 kts 152°
2026-05-06 16:46 52.16964 20.96772 336 ft 26 kts 153°
2026-05-06 16:47 52.16810 20.96903 334 ft 25 kts 155°
2026-05-06 16:47 52.16669 20.97043 334 ft 23 kts 122°
2026-05-06 16:47 52.16596 20.97290 332 ft 25 kts 114°
2026-05-06 16:47 52.16522 20.97556 333 ft 27 kts 114°
2026-05-06 16:48 52.16453 20.97800 335 ft 23 kts 115°
2026-05-06 16:48 52.16382 20.98049 335 ft 26 kts 115°
2026-05-06 16:48 52.16307 20.98312 332 ft 23 kts 114°
2026-05-06 16:48 52.16235 20.98467 334 ft 13 kts 172°
2026-05-06 16:49 52.16190 20.98438 334 ft 8 kts 210°
2026-05-06 16:49 52.16130 20.98380 333 ft 11 kts 231°
2026-05-06 16:49 52.16144 20.98251 332 ft 20 kts 294°
2026-05-06 16:49 52.16307 20.97668 335 ft 92 kts 294°
2026-05-06 16:50 52.16651 20.96445 346 ft 146 kts 295°
2026-05-06 16:50 52.17108 20.94862 797 ft 153 kts 294°
2026-05-06 16:50 52.17567 20.93292 1460 ft 154 kts 292°
2026-05-06 16:50 52.17873 20.92243 1880 ft 156 kts 290°
2026-05-06 16:51 52.18456 20.89967 2544 ft 171 kts 277°
2026-05-06 16:51 52.18418 20.87982 2945 ft 190 kts 253°
2026-05-06 16:51 52.18046 20.85787 3488 ft 211 kts 252°
2026-05-06 16:51 52.17645 20.83370 4083 ft 232 kts 253°
2026-05-06 16:52 52.17217 20.80706 4680 ft 252 kts 254°
2026-05-06 16:52 52.16781 20.77939 5690 ft 253 kts 254°
2026-05-06 16:52 52.16473 20.76062 6326 ft 256 kts 249°
2026-05-06 16:52 52.15063 20.73064 7570 ft 260 kts 214°
2026-05-06 16:53 52.13382 20.71926 8533 ft 265 kts 198°
2026-05-06 16:53 52.11585 20.71264 9488 ft 270 kts 196°
2026-05-06 16:53 52.09720 20.70613 10226 ft 281 kts 197°
2026-05-06 16:53 52.07747 20.69814 10590 ft 303 kts 198°
2026-05-06 16:54 52.05650 20.68853 11037 ft 320 kts 199°
2026-05-06 16:54 52.03509 20.67814 11911 ft 322 kts 199°
2026-05-06 16:54 52.01359 20.66747 12822 ft 325 kts 199°
2026-05-06 16:54 51.99188 20.65661 13677 ft 328 kts 199°
2026-05-06 16:55 51.97002 20.64570 14457 ft 330 kts 199°
2026-05-06 16:55 51.94797 20.63472 15223 ft 333 kts 200°
2026-05-06 16:55 51.93294 20.62726 15733 ft 335 kts 200°
2026-05-06 16:55 51.91053 20.61613 16452 ft 339 kts 200°
2026-05-06 16:56 51.88785 20.60488 17184 ft 342 kts 200°
2026-05-06 16:56 51.86501 20.59357 17938 ft 345 kts 200°
2026-05-06 16:56 51.84194 20.58217 18582 ft 348 kts 200°
2026-05-06 16:56 51.81897 20.57082 19179 ft 352 kts 200°
2026-05-06 16:57 51.79546 20.55922 19776 ft 356 kts 200°
2026-05-06 16:57 51.77167 20.54749 20376 ft 359 kts 200°
2026-05-06 16:57 51.74762 20.53565 20971 ft 363 kts 200°
2026-05-06 16:57 51.72340 20.52374 21572 ft 367 kts 201°
2026-05-06 16:58 51.69883 20.51167 22144 ft 370 kts 201°
2026-05-06 16:58 51.67405 20.49951 22720 ft 374 kts 201°
2026-05-06 16:58 51.64898 20.48723 23292 ft 378 kts 201°
2026-05-06 16:58 51.62368 20.47485 23798 ft 381 kts 201°
2026-05-06 16:59 51.59827 20.46244 24327 ft 382 kts 201°
2026-05-06 16:59 51.57274 20.44997 24821 ft 385 kts 201°
2026-05-06 16:59 51.54702 20.43743 25313 ft 387 kts 201°
2026-05-06 16:59 51.52117 20.42484 25802 ft 389 kts 201°
2026-05-06 17:00 51.49518 20.41219 26263 ft 391 kts 200°
2026-05-06 17:00 51.46906 20.39954 26749 ft 393 kts 201°
2026-05-06 17:00 51.44282 20.38680 27171 ft 395 kts 200°
2026-05-06 17:00 51.41657 20.37339 27616 ft 396 kts 204°
2026-05-06 17:01 51.39125 20.35607 28025 ft 396 kts 209°
2026-05-06 17:01 51.36726 20.33442 28424 ft 396 kts 215°
2026-05-06 17:01 51.34479 20.30884 28825 ft 397 kts 219°
2026-05-06 17:01 51.32280 20.28193 29193 ft 399 kts 219°
2026-05-06 17:02 51.30064 20.25497 29570 ft 401 kts 219°
2026-05-06 17:02 51.27834 20.22799 29938 ft 403 kts 219°
2026-05-06 17:02 51.25590 20.20093 30250 ft 405 kts 219°
2026-05-06 17:02 51.23334 20.17383 30614 ft 406 kts 219°
2026-05-06 17:03 51.21075 20.14672 30955 ft 407 kts 219°
2026-05-06 17:03 51.18808 20.11955 31317 ft 408 kts 219°
2026-05-06 17:03 51.16540 20.09241 31718 ft 407 kts 219°
2026-05-06 17:03 51.14275 20.06533 32117 ft 407 kts 219°
2026-05-06 17:04 51.12011 20.03830 32509 ft 406 kts 219°
2026-05-06 17:04 51.09781 20.01169 32886 ft 406 kts 219°
2026-05-06 17:04 51.07520 19.98482 33269 ft 405 kts 219°
2026-05-06 17:04 51.05261 19.95803 33639 ft 405 kts 219°
2026-05-06 17:05 51.03008 19.93128 33960 ft 404 kts 220°
2026-05-06 17:05 51.00878 19.90240 34256 ft 402 kts 225°
2026-05-06 17:05 50.98943 19.87045 34520 ft 401 kts 229°
2026-05-06 17:05 50.97082 19.83751 34777 ft 401 kts 229°
2026-05-06 17:06 50.95214 19.80459 35035 ft 401 kts 229°
2026-05-06 17:06 50.93341 19.77171 35294 ft 401 kts 229°
2026-05-06 17:06 50.91465 19.73890 35539 ft 402 kts 229°
2026-05-06 17:06 50.89590 19.70618 35777 ft 402 kts 229°
2026-05-06 17:07 50.87710 19.67342 36016 ft 402 kts 229°
2026-05-06 17:07 50.85830 19.64071 36240 ft 402 kts 229°
2026-05-06 17:07 50.83949 19.60804 36514 ft 401 kts 229°
2026-05-06 17:07 50.82077 19.57555 36821 ft 399 kts 229°
2026-05-06 17:08 50.80207 19.54313 37032 ft 399 kts 229°
2026-05-06 17:08 50.78336 19.51075 37230 ft 399 kts 229°
2026-05-06 17:08 50.76463 19.47837 37428 ft 399 kts 229°
2026-05-06 17:08 50.74590 19.44603 37619 ft 399 kts 229°
2026-05-06 17:09 50.72715 19.41372 37795 ft 399 kts 229°
2026-05-06 17:09 50.68963 19.34916 37799 ft 398 kts 229°
2026-05-06 17:10 50.65224 19.28495 37800 ft 398 kts 229°
2026-05-06 17:10 50.61479 19.22082 37781 ft 397 kts 229°
2026-05-06 17:11 50.57732 19.15684 37779 ft 398 kts 229°
2026-05-06 17:11 50.53981 19.09293 37774 ft 397 kts 229°
2026-05-06 17:12 50.50229 19.02917 37770 ft 397 kts 228°
2026-05-06 17:12 50.46473 18.96552 37769 ft 397 kts 228°
2026-05-06 17:13 50.42715 18.90197 37772 ft 397 kts 228°
2026-05-06 17:13 50.38953 18.83854 37775 ft 397 kts 228°
2026-05-06 17:14 50.35185 18.77515 37783 ft 398 kts 228°
2026-05-06 17:14 50.31411 18.71180 37792 ft 398 kts 228°
2026-05-06 17:15 50.27632 18.64855 37797 ft 398 kts 228°
2026-05-06 17:15 50.23851 18.58541 37795 ft 398 kts 228°
2026-05-06 17:16 50.20068 18.52242 37791 ft 398 kts 228°
2026-05-06 17:16 50.16281 18.45949 37791 ft 398 kts 227°
2026-05-06 17:17 50.12492 18.39670 37791 ft 397 kts 227°
2026-05-06 17:17 50.08706 18.33412 37784 ft 395 kts 227°
2026-05-06 17:18 50.04934 18.27192 37784 ft 395 kts 227°
2026-05-06 17:18 50.01160 18.20980 37785 ft 395 kts 227°
2026-05-06 17:19 49.97427 18.14792 37788 ft 395 kts 228°
2026-05-06 17:19 49.93696 18.08528 37782 ft 395 kts 228°
2026-05-06 17:20 49.89961 18.02279 37771 ft 394 kts 228°
2026-05-06 17:20 49.86222 17.96050 37768 ft 394 kts 228°
2026-05-06 17:21 49.82483 17.89839 37772 ft 394 kts 228°
2026-05-06 17:21 49.78737 17.83632 37773 ft 395 kts 228°
2026-05-06 17:22 49.74986 17.77432 37783 ft 395 kts 228°
2026-05-06 17:22 49.71228 17.71234 37782 ft 395 kts 228°
2026-05-06 17:23 49.67464 17.65042 37784 ft 395 kts 228°
2026-05-06 17:23 49.63693 17.58855 37785 ft 396 kts 228°
2026-05-06 17:24 49.59916 17.52672 37790 ft 396 kts 228°
2026-05-06 17:24 49.56132 17.46492 37787 ft 397 kts 228°
2026-05-06 17:25 49.52340 17.40314 37771 ft 397 kts 228°
2026-05-06 17:25 49.48539 17.34137 37776 ft 397 kts 227°
2026-05-06 17:26 49.44734 17.27968 37775 ft 398 kts 227°
2026-05-06 17:26 49.40927 17.21809 37772 ft 398 kts 227°
2026-05-06 17:27 49.37143 17.15702 37761 ft 396 kts 227°
2026-05-06 17:27 49.33328 17.09562 37766 ft 395 kts 227°
2026-05-06 17:28 49.29531 17.03466 37760 ft 396 kts 227°
2026-05-06 17:28 49.25726 16.97371 37762 ft 396 kts 227°
2026-05-06 17:29 49.21919 16.91288 37757 ft 396 kts 227°
2026-05-06 17:29 49.18134 16.85253 37748 ft 396 kts 227°
2026-05-06 17:30 49.14325 16.79194 37727 ft 395 kts 227°
2026-05-06 17:30 49.10512 16.73142 37732 ft 396 kts 227°
2026-05-06 17:31 49.06688 16.67089 37734 ft 396 kts 227°
2026-05-06 17:31 49.02858 16.61040 37733 ft 397 kts 227°
2026-05-06 17:32 48.99021 16.54994 37734 ft 397 kts 227°
2026-05-06 17:32 48.95172 16.48944 37729 ft 398 kts 227°
2026-05-06 17:33 48.91318 16.42900 37756 ft 398 kts 227°
2026-05-06 17:33 48.87454 16.36853 37752 ft 399 kts 227°
2026-05-06 17:34 48.83584 16.30814 37729 ft 399 kts 226°
2026-05-06 17:34 48.79709 16.24780 37706 ft 399 kts 226°
2026-05-06 17:35 48.76004 16.18528 37714 ft 399 kts 233°
2026-05-06 17:35 48.72771 16.11706 37703 ft 399 kts 234°
2026-05-06 17:36 48.67924 16.01469 37712 ft 399 kts 234°
2026-05-06 17:36 48.64677 15.94659 37711 ft 399 kts 234°
2026-05-06 17:37 48.61429 15.87867 37709 ft 399 kts 234°
2026-05-06 17:37 48.58165 15.81057 37718 ft 399 kts 234°
2026-05-06 17:38 48.54904 15.74269 37710 ft 400 kts 234°
2026-05-06 17:38 48.51637 15.67485 37715 ft 400 kts 234°
2026-05-06 17:39 48.48363 15.60706 37735 ft 399 kts 234°
2026-05-06 17:39 48.45089 15.53942 37708 ft 398 kts 234°
2026-05-06 17:40 48.42383 15.48365 37712 ft 396 kts 233°
2026-05-06 17:40 48.39123 15.41661 37713 ft 397 kts 233°
2026-05-06 17:41 48.35855 15.34958 37712 ft 397 kts 233°
2026-05-06 17:41 48.32584 15.28267 37710 ft 397 kts 233°
2026-05-06 17:42 48.29308 15.21579 37709 ft 397 kts 233°
2026-05-06 17:42 48.26033 15.14911 37715 ft 396 kts 233°
2026-05-06 17:43 48.22785 15.08312 37714 ft 392 kts 233°
2026-05-06 17:43 48.19531 15.01720 37705 ft 393 kts 233°
2026-05-06 17:44 48.16270 14.95131 37709 ft 394 kts 233°
2026-05-06 17:44 48.13008 14.88553 37708 ft 393 kts 233°
2026-05-06 17:45 48.09743 14.81984 37723 ft 393 kts 233°
2026-05-06 17:45 48.06476 14.75428 37715 ft 393 kts 232°
2026-05-06 17:46 48.03208 14.68885 37713 ft 393 kts 232°
2026-05-06 17:46 47.99938 14.62356 37711 ft 392 kts 232°
2026-05-06 17:47 47.96667 14.55841 37725 ft 392 kts 233°
2026-05-06 17:47 47.93414 14.49376 37698 ft 392 kts 233°
2026-05-06 17:48 47.90117 14.42837 37706 ft 392 kts 232°
2026-05-06 17:48 47.86835 14.36431 37707 ft 392 kts 232°
2026-05-06 17:49 47.83522 14.29987 37707 ft 392 kts 232°
2026-05-06 17:49 47.80215 14.23562 37712 ft 391 kts 232°
2026-05-06 17:50 47.76896 14.17120 37717 ft 395 kts 232°
2026-05-06 17:50 47.73539 14.10625 37742 ft 397 kts 232°
2026-05-06 17:51 47.70188 14.04157 37751 ft 395 kts 232°
2026-05-06 17:51 47.66828 13.97686 37750 ft 396 kts 232°
2026-05-06 17:52 47.63479 13.91252 37752 ft 392 kts 232°
2026-05-06 17:52 47.60142 13.84857 37759 ft 393 kts 232°
2026-05-06 17:53 47.56779 13.78425 37745 ft 395 kts 232°
2026-05-06 17:53 47.53421 13.72019 37778 ft 395 kts 232°
2026-05-06 17:54 47.50044 13.65590 37773 ft 395 kts 232°
2026-05-06 17:54 47.46674 13.59186 37775 ft 396 kts 232°
2026-05-06 17:55 47.43295 13.52784 37774 ft 394 kts 231°
2026-05-06 17:55 47.39934 13.46429 37774 ft 392 kts 231°
2026-05-06 17:56 47.36568 13.40085 37773 ft 392 kts 231°
2026-05-06 17:56 47.33176 13.33708 37794 ft 399 kts 231°
2026-05-06 17:57 47.29820 13.27096 37791 ft 405 kts 233°
2026-05-06 17:57 47.26552 13.20365 37799 ft 403 kts 233°
2026-05-06 17:58 47.23278 13.13698 37788 ft 400 kts 233°
2026-05-06 17:58 47.20002 13.07084 37803 ft 400 kts 232°
2026-05-06 17:59 47.16721 13.00480 37796 ft 401 kts 232°
2026-05-06 17:59 47.13436 12.93892 37827 ft 398 kts 232°
2026-05-06 18:00 47.10149 12.87313 37816 ft 399 kts 232°
2026-05-06 18:00 47.06871 12.80760 37835 ft 401 kts 232°
2026-05-06 18:01 47.03545 12.74124 37829 ft 405 kts 233°
2026-05-06 18:01 47.00204 12.67476 37835 ft 403 kts 233°
2026-05-06 18:02 46.96892 12.60906 37841 ft 405 kts 233°
2026-05-06 18:02 46.93550 12.54286 37880 ft 404 kts 232°
2026-05-06 18:03 46.90201 12.47676 37874 ft 404 kts 233°
2026-05-06 18:03 46.86852 12.41076 37899 ft 405 kts 232°
2026-05-06 18:04 46.83484 12.34458 37921 ft 406 kts 233°
2026-05-06 18:04 46.80109 12.27839 37955 ft 407 kts 232°
2026-05-06 18:05 46.76679 12.21242 37938 ft 408 kts 232°
2026-05-06 18:05 46.73240 12.14687 37848 ft 407 kts 232°
2026-05-06 18:06 46.69801 12.08128 37862 ft 407 kts 232°
2026-05-06 18:06 46.66365 12.01587 37864 ft 407 kts 232°
2026-05-06 18:07 46.62917 11.95036 37861 ft 407 kts 232°
2026-05-06 18:07 46.59470 11.88502 37871 ft 407 kts 232°
2026-05-06 18:08 46.56021 11.81981 37876 ft 406 kts 232°
2026-05-06 18:08 46.52579 11.75491 37879 ft 405 kts 232°
2026-05-06 18:09 46.49137 11.69002 37879 ft 405 kts 232°
2026-05-06 18:09 46.45720 11.62593 37873 ft 404 kts 232°
2026-05-06 18:10 46.42278 11.56151 37877 ft 404 kts 232°
2026-05-06 18:10 46.38836 11.49722 37878 ft 403 kts 232°
2026-05-06 18:11 46.35404 11.43324 37881 ft 401 kts 232°
2026-05-06 18:11 46.31977 11.36945 37877 ft 401 kts 231°
2026-05-06 18:12 46.28547 11.30578 37904 ft 402 kts 232°
2026-05-06 18:12 46.25085 11.24169 37996 ft 405 kts 232°
2026-05-06 18:13 46.21614 11.17761 37969 ft 406 kts 232°
2026-05-06 18:13 46.18135 11.11348 37959 ft 405 kts 232°
2026-05-06 18:14 46.14659 11.04956 37962 ft 404 kts 232°
2026-05-06 18:14 46.11197 10.98605 37924 ft 402 kts 231°
2026-05-06 18:15 46.07749 10.92293 37944 ft 406 kts 231°
2026-05-06 18:15 46.04257 10.85915 37933 ft 405 kts 231°
2026-05-06 18:16 46.00779 10.79577 37927 ft 404 kts 231°
2026-05-06 18:16 45.97295 10.73241 37927 ft 404 kts 231°
2026-05-06 18:17 45.93791 10.66884 37903 ft 407 kts 231°
2026-05-06 18:17 45.90285 10.60539 37897 ft 405 kts 231°
2026-05-06 18:18 45.86782 10.54214 37937 ft 404 kts 231°
2026-05-06 18:18 45.85036 10.51066 37713 ft 402 kts 231°
2026-05-06 18:18 45.83885 10.48993 37539 ft 400 kts 231°
2026-05-06 18:19 45.79922 10.41860 37714 ft 400 kts 231°
2026-05-06 18:19 45.76415 10.35624 37887 ft 404 kts 231°
2026-05-06 18:20 45.72895 10.29386 37894 ft 401 kts 231°
2026-05-06 18:20 45.69389 10.23175 37859 ft 397 kts 231°
2026-05-06 18:21 45.65945 10.17085 37858 ft 395 kts 231°
2026-05-06 18:21 45.62473 10.10963 37847 ft 396 kts 230°
2026-05-06 18:22 45.59007 10.04865 37839 ft 395 kts 230°
2026-05-06 18:22 45.55548 9.98793 37832 ft 394 kts 230°
2026-05-06 18:23 45.52119 9.92786 37846 ft 392 kts 230°
2026-05-06 18:23 45.48674 9.86764 37838 ft 392 kts 230°
2026-05-06 18:24 45.45230 9.80756 37835 ft 391 kts 230°
2026-05-06 18:24 45.41787 9.74763 37930 ft 391 kts 230°
2026-05-06 18:25 45.38338 9.68773 37915 ft 391 kts 230°
2026-05-06 18:25 45.34888 9.62792 37922 ft 391 kts 230°
2026-05-06 18:26 45.31430 9.56812 37904 ft 392 kts 230°
2026-05-06 18:26 45.27964 9.50829 37884 ft 392 kts 230°
2026-05-06 18:27 45.24489 9.44845 37862 ft 393 kts 230°
2026-05-06 18:27 45.21007 9.38859 37836 ft 394 kts 230°
2026-05-06 18:28 45.17512 9.32866 37826 ft 395 kts 230°
2026-05-06 18:28 45.14008 9.26868 37833 ft 395 kts 230°
2026-05-06 18:29 45.10487 9.20857 37811 ft 398 kts 230°
2026-05-06 18:29 45.06949 9.14828 37824 ft 399 kts 230°
2026-05-06 18:30 45.03397 9.08787 37833 ft 400 kts 230°
2026-05-06 18:30 44.99832 9.02738 37844 ft 401 kts 230°
2026-05-06 18:31 44.96257 8.96681 37850 ft 402 kts 230°
2026-05-06 18:31 44.92728 8.90549 37857 ft 403 kts 231°
2026-05-06 18:32 44.89217 8.84380 37852 ft 404 kts 231°
2026-05-06 18:32 44.86262 8.79217 37863 ft 404 kts 231°
2026-05-06 18:33 44.82750 8.73108 37867 ft 404 kts 231°
2026-05-06 18:33 44.79208 8.66960 37858 ft 404 kts 231°
2026-05-06 18:34 44.75667 8.60826 37859 ft 403 kts 231°
2026-05-06 18:34 44.72126 8.54707 37855 ft 403 kts 231°
2026-05-06 18:35 44.68588 8.48606 37848 ft 402 kts 231°
2026-05-06 18:35 44.65054 8.42526 37840 ft 401 kts 231°
2026-05-06 18:36 44.61525 8.36463 37832 ft 401 kts 231°
2026-05-06 18:36 44.57997 8.30421 37849 ft 400 kts 231°
2026-05-06 18:37 44.54475 8.24399 37836 ft 399 kts 231°
2026-05-06 18:37 44.50955 8.18394 37833 ft 399 kts 231°
2026-05-06 18:38 44.47434 8.12399 37831 ft 398 kts 231°
2026-05-06 18:38 44.43918 8.06424 37828 ft 397 kts 231°
2026-05-06 18:39 44.40405 8.00467 37822 ft 397 kts 231°
2026-05-06 18:40 44.35134 7.91552 37812 ft 397 kts 231°
2026-05-06 18:40 44.31620 7.85625 37809 ft 396 kts 231°
2026-05-06 18:41 44.28091 7.79727 37811 ft 396 kts 229°
2026-05-06 18:41 44.24159 7.74320 37816 ft 397 kts 222°
2026-05-06 18:42 44.20034 7.69272 37846 ft 399 kts 223°
2026-05-06 18:42 44.15865 7.64139 37815 ft 399 kts 224°
2026-05-06 18:43 44.12054 7.58570 37842 ft 398 kts 230°
2026-05-06 18:43 44.08405 7.52690 37840 ft 403 kts 229°
2026-05-06 18:44 44.04747 7.46839 37841 ft 400 kts 229°
2026-05-06 18:44 44.01081 7.40991 37845 ft 402 kts 229°
2026-05-06 18:45 43.97415 7.35158 37842 ft 400 kts 229°
2026-05-06 18:45 43.93758 7.29349 37848 ft 400 kts 229°
2026-05-06 18:46 43.90091 7.23541 37857 ft 400 kts 229°
2026-05-06 18:46 43.86416 7.17725 37850 ft 401 kts 229°
2026-05-06 18:47 43.82738 7.11918 37873 ft 401 kts 229°
2026-05-06 18:47 43.79058 7.06123 37855 ft 399 kts 229°
2026-05-06 18:48 43.75412 7.00355 37856 ft 399 kts 231°
2026-05-06 18:48 43.72232 6.94103 37860 ft 398 kts 239°
2026-05-06 18:49 43.69776 6.87233 37867 ft 400 kts 246°
2026-05-06 18:49 43.67711 6.80115 37879 ft 398 kts 246°
2026-05-06 18:50 43.65630 6.73036 37880 ft 397 kts 246°
2026-05-06 18:50 43.63535 6.65962 37875 ft 398 kts 246°
2026-05-06 18:51 43.61433 6.58886 37902 ft 399 kts 246°
2026-05-06 18:51 43.59322 6.51798 37920 ft 400 kts 246°
2026-05-06 18:52 43.57212 6.44730 37919 ft 398 kts 246°
2026-05-06 18:52 43.55105 6.37696 37911 ft 399 kts 246°
2026-05-06 18:53 43.52983 6.30629 37911 ft 399 kts 246°
2026-05-06 18:53 43.50855 6.23559 37912 ft 399 kts 246°
2026-05-06 18:54 43.48724 6.16501 37912 ft 399 kts 246°
2026-05-06 18:54 43.46590 6.09453 37882 ft 398 kts 246°
2026-05-06 18:55 43.44454 6.02416 37894 ft 399 kts 246°
2026-05-06 18:55 43.42312 5.95381 37912 ft 399 kts 246°
2026-05-06 18:56 43.40165 5.88346 37923 ft 399 kts 246°
2026-05-06 18:56 43.38012 5.81311 37909 ft 399 kts 246°
2026-05-06 18:57 43.35853 5.74274 37921 ft 400 kts 246°
2026-05-06 18:57 43.33685 5.67230 37923 ft 401 kts 246°
2026-05-06 18:58 43.31506 5.60169 37925 ft 402 kts 246°
2026-05-06 18:58 43.29317 5.53096 37921 ft 403 kts 246°
2026-05-06 18:59 43.27124 5.46025 37946 ft 403 kts 246°
2026-05-06 18:59 43.24930 5.38973 37938 ft 401 kts 246°
2026-05-06 19:00 43.22736 5.31939 37953 ft 402 kts 246°
2026-05-06 19:00 43.20524 5.24868 37940 ft 404 kts 246°
2026-05-06 19:01 43.18307 5.17800 37938 ft 403 kts 246°
2026-05-06 19:01 43.16085 5.10735 37942 ft 404 kts 246°
2026-05-06 19:02 43.13856 5.03666 37949 ft 405 kts 246°
2026-05-06 19:02 43.11622 4.96599 37938 ft 404 kts 246°
2026-05-06 19:03 43.09386 4.89549 37944 ft 404 kts 246°
2026-05-06 19:03 43.07037 4.82578 37954 ft 404 kts 241°
2026-05-06 19:04 43.03881 4.76233 37948 ft 405 kts 231°
2026-05-06 19:04 42.99905 4.70773 37952 ft 407 kts 223°
2026-05-06 19:05 42.95660 4.65664 37955 ft 407 kts 224°
2026-05-06 19:05 42.91423 4.60546 37957 ft 406 kts 224°
2026-05-06 19:06 42.87185 4.55441 37954 ft 407 kts 224°
2026-05-06 19:06 42.82940 4.50339 37957 ft 407 kts 224°
2026-05-06 19:07 42.78692 4.45244 37956 ft 407 kts 224°
2026-05-06 19:07 42.74467 4.40187 37958 ft 407 kts 224°
2026-05-06 19:08 42.70210 4.35100 37963 ft 407 kts 224°
2026-05-06 19:08 42.65950 4.30020 37965 ft 408 kts 224°
2026-05-06 19:09 42.62376 4.25765 37967 ft 408 kts 224°
2026-05-06 19:09 42.57414 4.19868 37538 ft 408 kts 224°
2026-05-06 19:09 42.55277 4.17335 37036 ft 407 kts 224°
2026-05-06 19:10 42.53149 4.14814 36492 ft 405 kts 224°
2026-05-06 19:10 42.51041 4.12320 35989 ft 400 kts 224°
2026-05-06 19:10 42.48958 4.09857 35499 ft 395 kts 224°
2026-05-06 19:10 42.46898 4.07422 35018 ft 392 kts 224°
2026-05-06 19:11 42.44847 4.04999 34542 ft 391 kts 224°
2026-05-06 19:11 42.42796 4.02578 34077 ft 391 kts 224°
2026-05-06 19:11 42.40746 4.00160 33547 ft 390 kts 224°
2026-05-06 19:11 42.38697 3.97746 33007 ft 391 kts 224°
2026-05-06 19:12 42.36641 3.95325 32480 ft 393 kts 224°
2026-05-06 19:12 42.34578 3.92899 31964 ft 394 kts 224°
2026-05-06 19:12 42.32505 3.90463 31414 ft 395 kts 224°
2026-05-06 19:12 42.30430 3.88029 30906 ft 395 kts 224°
2026-05-06 19:13 42.28346 3.85585 30209 ft 397 kts 224°
2026-05-06 19:13 42.26278 3.83164 29618 ft 391 kts 224°
2026-05-06 19:13 42.24236 3.80777 29055 ft 384 kts 224°
2026-05-06 19:13 42.22231 3.78436 28476 ft 379 kts 224°
2026-05-06 19:14 42.20254 3.76127 27922 ft 373 kts 224°
2026-05-06 19:14 42.18305 3.73851 27368 ft 368 kts 224°
2026-05-06 19:14 42.16380 3.71605 26824 ft 364 kts 224°
2026-05-06 19:14 42.14479 3.69389 26282 ft 360 kts 224°
2026-05-06 19:15 42.12595 3.67195 25738 ft 356 kts 224°
2026-05-06 19:15 42.10733 3.65029 25209 ft 353 kts 224°
2026-05-06 19:15 42.08894 3.62881 24823 ft 346 kts 225°
2026-05-06 19:15 42.07173 3.60556 24635 ft 361 kts 229°
2026-05-06 19:16 42.05396 3.58049 24308 ft 373 kts 229°
2026-05-06 19:16 42.03617 3.55560 23944 ft 365 kts 229°
2026-05-06 19:16 42.01872 3.53128 23581 ft 358 kts 229°
2026-05-06 19:16 42.00147 3.50723 23183 ft 358 kts 229°
2026-05-06 19:17 41.98621 3.48055 22824 ft 367 kts 237°
2026-05-06 19:17 41.97144 3.45216 22541 ft 372 kts 237°
2026-05-06 19:17 41.96164 3.43337 22367 ft 369 kts 237°
2026-05-06 19:17 41.94699 3.40518 22098 ft 367 kts 237°
2026-05-06 19:18 41.93242 3.37705 21605 ft 367 kts 237°
2026-05-06 19:18 41.91801 3.34917 21228 ft 358 kts 237°
2026-05-06 19:18 41.90403 3.32210 20921 ft 350 kts 237°
2026-05-06 19:18 41.89008 3.29506 20856 ft 356 kts 237°
2026-05-06 19:19 41.87594 3.26765 20854 ft 357 kts 237°
2026-05-06 19:19 41.86186 3.24041 20786 ft 354 kts 237°
2026-05-06 19:19 41.84779 3.21324 19950 ft 356 kts 237°
2026-05-06 19:19 41.83340 3.18543 18459 ft 372 kts 237°
2026-05-06 19:20 41.81844 3.15652 17192 ft 379 kts 236°
2026-05-06 19:20 41.80353 3.12781 16337 ft 370 kts 236°
2026-05-06 19:20 41.78908 3.10005 15765 ft 355 kts 236°
2026-05-06 19:20 41.77523 3.07345 15238 ft 341 kts 236°
2026-05-06 19:21 41.76189 3.04783 14716 ft 330 kts 236°
2026-05-06 19:21 41.74899 3.02306 14205 ft 320 kts 236°
2026-05-06 19:21 41.73643 2.99896 13692 ft 311 kts 236°
2026-05-06 19:21 41.72420 2.97552 13128 ft 303 kts 237°
2026-05-06 19:22 41.71225 2.95262 12577 ft 297 kts 237°
2026-05-06 19:22 41.70056 2.93023 12035 ft 290 kts 237°
2026-05-06 19:22 41.68911 2.90833 11502 ft 285 kts 237°
2026-05-06 19:22 41.67782 2.88673 10975 ft 284 kts 237°
2026-05-06 19:23 41.66648 2.86505 10364 ft 285 kts 236°
2026-05-06 19:23 41.65513 2.84339 9731 ft 284 kts 236°
2026-05-06 19:23 41.64384 2.82186 9100 ft 282 kts 236°
2026-05-06 19:23 41.63265 2.80054 8542 ft 276 kts 237°
2026-05-06 19:24 41.62177 2.77984 8272 ft 274 kts 237°
2026-05-06 19:24 41.61073 2.75881 8025 ft 275 kts 237°
2026-05-06 19:24 41.59987 2.73817 7773 ft 270 kts 237°
2026-05-06 19:24 41.58902 2.71753 7518 ft 272 kts 237°
2026-05-06 19:25 41.57820 2.69697 7267 ft 269 kts 237°
2026-05-06 19:25 41.56740 2.67648 7010 ft 269 kts 237°
2026-05-06 19:25 41.55664 2.65607 6764 ft 268 kts 237°
2026-05-06 19:25 41.54595 2.63579 6516 ft 267 kts 237°
2026-05-06 19:26 41.53529 2.61560 6271 ft 265 kts 237°
2026-05-06 19:26 41.52461 2.59539 6017 ft 268 kts 237°
2026-05-06 19:26 41.51387 2.57504 5757 ft 267 kts 236°
2026-05-06 19:26 41.50335 2.55515 5509 ft 267 kts 236°
2026-05-06 19:27 41.49268 2.53499 5256 ft 264 kts 236°
2026-05-06 19:27 41.48206 2.51495 5002 ft 264 kts 236°
2026-05-06 19:27 41.47154 2.49509 4754 ft 262 kts 236°
2026-05-06 19:27 41.46098 2.47518 4497 ft 262 kts 236°
2026-05-06 19:28 41.45056 2.45555 4241 ft 259 kts 236°
2026-05-06 19:28 41.44011 2.43585 3991 ft 261 kts 235°
2026-05-06 19:28 41.42970 2.41626 3745 ft 257 kts 235°
2026-05-06 19:28 41.41934 2.39676 3512 ft 258 kts 235°
2026-05-06 19:29 41.40898 2.37726 3204 ft 258 kts 234°
2026-05-06 19:29 41.39869 2.35791 3030 ft 252 kts 234°
2026-05-06 19:29 41.38855 2.33884 2967 ft 252 kts 234°
2026-05-06 19:29 41.37939 2.31907 2801 ft 248 kts 242°
2026-05-06 19:30 41.37214 2.29878 2711 ft 238 kts 245°
2026-05-06 19:30 41.36552 2.27919 2631 ft 226 kts 245°
2026-05-06 19:30 41.35923 2.26072 2497 ft 212 kts 245°
2026-05-06 19:30 41.35328 2.24329 2318 ft 206 kts 245°
2026-05-06 19:31 41.34753 2.22640 2050 ft 194 kts 244°
2026-05-06 19:31 41.34214 2.21057 1786 ft 184 kts 244°
2026-05-06 19:31 41.33247 2.18220 1352 ft 150 kts 243°
2026-05-06 19:32 41.32836 2.17015 1141 ft 137 kts 244°
2026-05-06 19:32 41.32463 2.15918 958 ft 128 kts 244°
2026-05-06 19:32 41.32090 2.14830 792 ft 127 kts 244°
2026-05-06 19:32 41.31728 2.13771 634 ft 129 kts 244°
2026-05-06 19:33 41.31356 2.12679 438 ft 126 kts 243°
2026-05-06 19:33 41.30990 2.11584 261 ft 131 kts 245°
2026-05-06 19:33 41.30614 2.10473 85 ft 131 kts 243°
2026-05-06 19:33 41.30242 2.09407 16 ft 113 kts 244°
2026-05-06 19:34 41.30002 2.08704 19 ft 55 kts 245°
2026-05-06 19:34 41.29930 2.08438 19 ft 22 kts 263°
2026-05-06 19:34 41.29931 2.08257 18 ft 18 kts 274°
2026-05-06 19:34 41.29940 2.08122 20 ft 11 kts 276°
2026-05-06 19:35 41.29946 2.08071 17 ft 5 kts 284°
2026-05-06 19:35 41.29952 2.08053 17 ft 2 kts 302°
2026-05-06 19:35 41.29954 2.08050 19 ft 1 kts 307°
2026-05-06 19:35 41.29962 2.08040 19 ft 2 kts 320°
2026-05-06 19:36 41.29994 2.08022 18 ft 10 kts 336°
2026-05-06 19:36 41.30073 2.07970 19 ft 13 kts 336°
2026-05-06 19:36 41.30139 2.07899 19 ft 13 kts 326°
2026-05-06 19:36 41.30212 2.07911 18 ft 10 kts 25°
2026-05-06 19:37 41.30235 2.07925 19 ft 0 kts 24°
2026-05-06 19:37 41.30236 2.07926 19 ft 0 kts 24°